[[{"header":{"parameterUnit":"m.s-1","parameterCategory":1,"la1":30.2991,"la2":30.254,"lo1":-89.0895,"lo2":-89.0444,"dy":0.0017,"dx":0.0017,"nx":28,"ny":28,"refTime":"2025-04-07T09:00:00:Z","depth":0,"parameterNumber":2,"parameterNumberName":"U-component_of_WINDS"},"data":[0,0,0,0,0,0,0,0,0,0,0,0,0,0,0,0,0,0,0,0,0,0,0,0,0,0,0,0,0,0,0,0,0,0,0,0,0,0,0,0,0,0,0,0,0,0,0,0,0,0,0,0,0,0,0,0,0,0,4.2401,4.2402,0,4.2485,4.2486,4.2487,4.2441,4.2439,4.2437,4.2435,4.2522,4.2527,4.2531,0,0,0,0,0,0,0,0,0,0,0,0,0,4.2205,4.2209,4.2401,4.2402,4.2403,4.2485,4.2486,4.2487,4.2442,4.2439,4.2436,4.2434,4.2521,4.2526,4.2531,0,0,0,0,0,0,0,0,0,0,0,0,0,4.229,4.221,4.2401,4.239,4.239,4.2485,4.2486,4.2488,4.2442,4.2439,4.2435,4.2432,4.2519,4.2526,4.2532,4.2643,0,0,4.2553,4.2556,0,0,0,0,0,0,0,0,4.2285,4.2297,4.2391,4.2391,4.2391,4.2449,4.2449,4.254,4.2443,4.2423,4.2435,4.2431,4.2501,4.2509,4.2532,4.2647,4.2651,4.2553,4.2557,4.256,4.2562,0,0,0,0,0,0,0,4.2279,4.2293,4.2434,4.2392,4.2392,4.2383,4.2391,4.2466,4.248,4.2424,4.2421,4.2431,4.25,4.2526,4.2534,4.2652,4.2553,4.2559,4.2563,4.2566,4.2867,4.287,0,0,0,0,0,0,4.2274,4.2289,4.2432,4.2437,4.2328,4.2389,4.2398,4.2434,4.2479,4.2483,4.2434,4.2429,4.2516,4.2526,4.2537,4.2672,4.256,4.2567,4.257,4.2863,4.2867,4.2872,0,0,0,0,0,0,4.227,4.2287,4.2428,4.2362,4.2379,4.2396,4.2437,4.2438,4.2463,4.2487,4.2489,4.2458,4.2514,4.2527,4.2618,4.2674,4.257,4.2576,4.2858,4.2864,4.287,4.2942,0,0,0,0,0,0,4.2264,4.2286,4.2326,4.2363,4.2383,4.2506,4.244,4.2442,4.2475,4.2468,4.2509,4.2513,4.2512,4.2608,4.2624,4.2682,4.2581,4.2853,4.2861,4.2868,4.2934,4.2949,4.2962,0,0,0,0,0,4.2257,4.2342,4.2329,4.2346,4.2434,4.2509,4.2521,4.2518,4.2479,4.2521,4.2538,4.2512,4.2666,4.2618,4.2636,4.2696,4.2849,4.2859,4.2867,4.2928,4.2946,4.2962,0,0,0,0,0,0,4.2311,4.2347,4.2332,4.2431,4.2468,4.2502,4.2554,4.2537,4.2585,4.2577,4.2572,4.2582,4.2677,4.2695,4.2641,4.2808,4.2752,4.2765,4.2792,4.281,4.2823,4.2817,4.2586,0,0,0,0,0,4.2335,4.2392,4.2421,4.2506,4.2525,4.2537,4.257,4.2565,4.2602,4.2618,4.264,4.2679,4.2736,4.2774,4.2828,4.2937,4.2947,4.2988,4.3002,4.3013,4.3025,4.3088,4.3108,4.2901,4.2901,4.2901,0,0,4.2383,4.241,4.2446,4.2517,4.2545,4.2607,4.255,4.2616,4.2662,4.2628,4.2715,4.2733,4.2776,4.2878,4.2924,4.2896,4.3085,4.3025,4.3034,4.3039,4.31,4.3119,4.3136,4.2907,4.2906,4.2905,0,0,4.2504,4.2529,4.2605,4.2634,4.2678,4.2686,4.2704,4.2742,4.2753,4.284,4.2817,4.2873,4.2971,4.3004,4.3033,4.3172,4.3152,4.319,4.3263,4.3325,4.3341,4.3356,4.3408,4.3426,4.3201,4.3202,4.3202,0,4.2559,4.265,4.2645,4.2715,4.2748,4.2721,4.2799,4.2828,4.2887,4.2912,4.288,4.3006,4.3033,4.3144,4.3178,4.3202,4.3225,4.3185,4.3339,4.3354,4.3367,4.3417,4.3436,4.3206,4.3206,4.3205,4.3205,0,4.2717,4.2781,4.2837,4.2895,4.2935,4.3008,4.3017,4.3059,4.3052,4.3064,4.3156,4.3188,4.325,4.3276,4.3269,4.3387,4.337,4.3339,4.3282,4.3391,4.3438,4.3457,4.3213,4.3211,4.321,4.3209,0,0,4.2871,4.293,4.295,4.2978,4.3026,4.3076,4.315,4.3211,4.3248,4.3291,4.3354,4.3441,4.3414,4.3448,4.3445,4.3499,4.3612,4.3463,4.3464,4.3491,4.3748,4.3771,4.3793,4.3598,4.3602,4.3605,4.3745,0,4.2996,4.3124,4.3125,4.3244,4.3305,4.3282,4.3347,4.3385,4.34,4.3455,4.3472,4.3534,4.3493,4.3514,4.3567,4.3586,4.3663,4.3576,4.366,4.3663,4.365,4.3817,4.3841,4.3972,4.3763,4.3766,4.3768,0,4.3159,4.3208,4.3334,4.3377,4.3402,4.346,4.3518,4.3571,4.3615,4.3622,4.3663,4.3653,4.3731,4.3674,4.3783,4.3724,4.3759,4.3775,4.378,4.3788,4.3722,4.3831,4.4013,4.4033,4.3797,4.3795,4.3793,0,4.3261,4.3359,4.3448,4.3472,4.3524,4.3566,4.359,4.3631,4.3669,4.372,4.3746,4.3806,4.3839,4.3887,4.3896,4.3852,4.4007,4.3949,4.4018,4.4018,4.4051,4.4049,4.4242,4.4072,4.4072,4.4071,4.4071,0,4.3401,4.3479,4.3495,4.3549,4.3638,4.3639,4.3727,4.3748,4.3785,4.3846,4.383,4.3887,4.3894,4.3954,4.3962,4.4054,4.4068,4.4078,4.4079,4.408,4.4079,4.4103,4.4094,4.4077,4.4075,4.4074,4.4073,0,4.353,4.3543,4.3639,4.3681,4.3694,4.3757,4.3795,4.3848,4.3863,4.394,4.3958,4.3982,4.4052,4.4066,4.4148,4.4154,4.4264,4.4255,4.4249,4.4248,4.4317,4.4311,4.4533,4.4563,4.4372,4.4374,4.4376,0,4.3618,4.3678,4.3728,4.3767,4.3793,4.3856,4.3896,4.3902,4.3944,4.4001,4.4049,4.4118,4.4173,4.4288,4.4313,4.4378,4.4372,4.4446,4.4381,4.4382,4.4376,4.4372,4.438,4.4458,4.446,4.4461,4.4463,0,4.3775,4.378,4.3836,4.3898,4.3946,4.3994,4.404,4.4073,4.4085,4.4134,4.4206,4.4249,4.4336,4.4406,4.4471,4.4498,4.4484,4.4483,4.4503,4.4504,4.4499,4.4505,4.4284,4.4478,4.4476,4.4475,4.4474,4.4474,4.3887,4.3941,4.3986,4.4051,4.4087,4.4131,4.4185,4.4207,4.4267,4.4337,4.4338,4.4418,4.4465,4.4552,4.4583,4.4648,4.4625,4.4652,4.466,4.4667,4.4674,4.4489,4.466,4.4659,4.4659,4.4658,4.4658,0,4.4045,4.4073,4.4134,4.4199,4.4252,4.4234,4.4285,4.4331,4.4401,4.4446,4.4502,4.4587,4.4656,4.4689,4.4758,4.4804,4.48,4.4822,4.4819,4.4826,4.469,4.4667,4.4825,4.4825,4.4825,4.4825,4.4824,4.4824,4.4133,4.4224,4.4235,4.4345,4.4373,4.4451,4.4482,4.4524,4.4561,4.4657,4.4714,4.4735,4.4777,4.485,4.4913,4.4922,4.4949,4.4975,4.498,4.4852,4.4835,4.4819,4.4797,4.498,4.498,4.5111,4.5113,4.5113]},{"header":{"parameterUnit":"m.s-1","parameterCategory":1,"la1":30.2991,"la2":30.254,"lo1":-89.0895,"lo2":-89.0444,"dy":0.0017,"dx":0.0017,"nx":28,"ny":28,"refTime":"2025-04-07T09:00:00:Z","depth":0,"parameterNumber":3,"parameterNumberName":"V-component_of_WINDS"},"data":[0,0,0,0,0,0,0,0,0,0,0,0,0,0,0,0,0,0,0,0,0,0,0,0,0,0,0,0,0,0,0,0,0,0,0,0,0,0,0,0,0,0,0,0,0,0,0,0,0,0,0,0,0,0,0,0,0,0,-4.6634,-4.6634,0,-4.6643,-4.6643,-4.6643,-4.6598,-4.6597,-4.6596,-4.6594,-4.6603,-4.6604,-4.6605,0,0,0,0,0,0,0,0,0,0,0,0,0,-4.6578,-4.658,-4.6634,-4.6634,-4.6635,-4.6643,-4.6643,-4.6643,-4.6598,-4.6597,-4.6595,-4.6594,-4.6602,-4.6604,-4.6606,0,0,0,0,0,0,0,0,0,0,0,0,0,-4.6597,-4.658,-4.6634,-4.6613,-4.6611,-4.6643,-4.6643,-4.6643,-4.6599,-4.6597,-4.6595,-4.6593,-4.6602,-4.6604,-4.6606,-4.6658,0,0,-4.6612,-4.6613,0,0,0,0,0,0,0,0,-4.6596,-4.6599,-4.6616,-4.6615,-4.6613,-4.6617,-4.6626,-4.6648,-4.6599,-4.6604,-4.6594,-4.6592,-4.6609,-4.6611,-4.6616,-4.6658,-4.6659,-4.6613,-4.6614,-4.6615,-4.6615,0,0,0,0,0,0,0,-4.6594,-4.6598,-4.6638,-4.6617,-4.6614,-4.6603,-4.6604,-4.663,-4.6617,-4.6603,-4.66,-4.6601,-4.6608,-4.6614,-4.6616,-4.6659,-4.6612,-4.6614,-4.6616,-4.6617,-4.6743,-4.6745,0,0,0,0,0,0,-4.6596,-4.6597,-4.6637,-4.6638,-4.6599,-4.6606,-4.6606,-4.6618,-4.6617,-4.6615,-4.6603,-4.6599,-4.6612,-4.6614,-4.6616,-4.6677,-4.6615,-4.6617,-4.6618,-4.6741,-4.6744,-4.6746,0,0,0,0,0,0,-4.6595,-4.66,-4.6637,-4.6617,-4.6621,-4.6609,-4.6622,-4.6619,-4.6626,-4.6617,-4.6614,-4.6612,-4.661,-4.6613,-4.6648,-4.6676,-4.6618,-4.662,-4.6739,-4.6742,-4.6745,-4.6798,0,0,0,0,0,0,-4.6594,-4.66,-4.662,-4.6618,-4.6622,-4.6669,-4.6624,-4.6621,-4.663,-4.6625,-4.6625,-4.6623,-4.6609,-4.6645,-4.665,-4.6678,-4.6621,-4.6736,-4.674,-4.6744,-4.6794,-4.6803,-4.681,0,0,0,0,0,-4.6592,-4.6634,-4.6621,-4.6626,-4.6646,-4.667,-4.6673,-4.6656,-4.6632,-4.6652,-4.6646,-4.6623,-4.6673,-4.6649,-4.6654,-4.6683,-4.6734,-4.6739,-4.6743,-4.679,-4.6801,-4.681,0,0,0,0,0,0,-4.664,-4.6634,-4.6619,-4.6662,-4.6667,-4.6663,-4.6687,-4.6668,-4.668,-4.6675,-4.6654,-4.6654,-4.6692,-4.6691,-4.6665,-4.6734,-4.6699,-4.6705,-4.6733,-4.6743,-4.6751,-4.675,-4.6623,0,0,0,0,0,-4.6656,-4.6676,-4.6669,-4.6708,-4.6712,-4.6699,-4.6709,-4.6696,-4.67,-4.6702,-4.6699,-4.6704,-4.672,-4.6732,-4.6747,-4.6794,-4.6793,-4.6817,-4.6825,-4.6832,-4.6837,-4.6861,-4.6872,-4.6761,-4.6761,-4.6761,0,0,-4.6688,-4.6688,-4.6702,-4.6718,-4.672,-4.6741,-4.6701,-4.6725,-4.6741,-4.6706,-4.6738,-4.6736,-4.674,-4.6781,-4.6799,-4.6781,-4.6867,-4.6838,-4.6843,-4.6845,-4.6867,-4.6878,-4.6887,-4.6764,-4.6764,-4.6763,0,0,-4.6759,-4.676,-4.6792,-4.6796,-4.68,-4.6791,-4.6799,-4.6798,-4.6795,-4.6827,-4.6801,-4.6819,-4.6848,-4.6852,-4.6858,-4.693,-4.6909,-4.6935,-4.6979,-4.7003,-4.7011,-4.7019,-4.7044,-4.7053,-4.6941,-4.6941,-4.6941,0,-4.6798,-4.683,-4.6811,-4.6837,-4.6845,-4.6815,-4.6847,-4.6851,-4.686,-4.6866,-4.6846,-4.6882,-4.6883,-4.6924,-4.6941,-4.6948,-4.6955,-4.6935,-4.7011,-4.7019,-4.7026,-4.7049,-4.7059,-4.6944,-4.6944,-4.6943,-4.6943,0,-4.6878,-4.69,-4.6926,-4.6935,-4.6946,-4.6975,-4.6961,-4.6974,-4.696,-4.6953,-4.6986,-4.6986,-4.7,-4.7009,-4.6996,-4.7048,-4.7037,-4.7015,-4.698,-4.704,-4.7061,-4.707,-4.6949,-4.6947,-4.6947,-4.6946,0,0,-4.6979,-4.6978,-4.6987,-4.6991,-4.6993,-4.701,-4.7038,-4.7051,-4.7063,-4.707,-4.7092,-4.7118,-4.7097,-4.7104,-4.7091,-4.7112,-4.7168,-4.7087,-4.7087,-4.7101,-4.7226,-4.7242,-4.7253,-4.7155,-4.7156,-4.7158,-4.7225,0,-4.7047,-4.7094,-4.7078,-4.7126,-4.7146,-4.7117,-4.7141,-4.7145,-4.714,-4.7155,-4.7149,-4.7168,-4.7139,-4.7143,-4.7163,-4.7157,-4.7193,-4.7152,-4.7175,-4.7176,-4.7174,-4.7264,-4.7281,-4.7345,-4.7233,-4.7235,-4.7236,0,-4.7132,-4.7143,-4.7193,-4.7191,-4.7199,-4.7221,-4.7232,-4.7248,-4.7252,-4.7246,-4.7254,-4.7236,-4.7263,-4.7229,-4.7265,-4.7238,-4.7246,-4.7245,-4.7247,-4.7247,-4.7209,-4.7267,-4.7365,-4.7374,-4.7249,-4.7248,-4.7247,0,-4.72,-4.7227,-4.726,-4.7264,-4.7264,-4.7279,-4.728,-4.7282,-4.7291,-4.7301,-4.7307,-4.732,-4.7327,-4.7338,-4.7324,-4.73,-4.7362,-4.7326,-4.7358,-4.7358,-4.7371,-4.737,-4.7471,-4.7378,-4.7378,-4.7378,-4.7378,0,-4.7277,-4.7309,-4.729,-4.731,-4.7344,-4.7326,-4.7361,-4.7358,-4.736,-4.7379,-4.7355,-4.7373,-4.7354,-4.7371,-4.736,-4.7392,-4.7395,-4.7391,-4.7388,-4.7393,-4.7393,-4.7397,-4.7392,-4.738,-4.738,-4.7379,-4.7379,0,-4.7358,-4.7347,-4.7381,-4.7378,-4.7378,-4.7403,-4.74,-4.7419,-4.7412,-4.7436,-4.7441,-4.743,-4.7448,-4.7435,-4.7454,-4.7447,-4.7487,-4.7478,-4.7486,-4.7483,-4.7515,-4.7512,-4.7621,-4.7635,-4.7534,-4.7535,-4.7536,0,-4.7408,-4.7431,-4.7431,-4.7442,-4.7444,-4.7462,-4.7471,-4.7454,-4.7465,-4.7471,-4.7489,-4.7505,-4.7517,-4.7547,-4.7541,-4.7555,-4.7545,-4.7583,-4.7547,-4.7551,-4.7545,-4.7543,-4.7545,-4.759,-4.7591,-4.7592,-4.7593,0,-4.7497,-4.7491,-4.7505,-4.7518,-4.7529,-4.7538,-4.7545,-4.7556,-4.7539,-4.7552,-4.757,-4.7579,-4.7598,-4.7614,-4.7625,-4.7626,-4.7606,-4.7604,-4.7612,-4.7617,-4.762,-4.7618,-4.7505,-4.7601,-4.76,-4.76,-4.7599,-4.7599,-4.7564,-4.7583,-4.7585,-4.7602,-4.7606,-4.7613,-4.763,-4.7625,-4.764,-4.7653,-4.7643,-4.7664,-4.7667,-4.768,-4.7683,-4.77,-4.7684,-4.7696,-4.7699,-4.7702,-4.7706,-4.7618,-4.7702,-4.7702,-4.7701,-4.7701,-4.7701,0,-4.7651,-4.7651,-4.7667,-4.7677,-4.769,-4.7671,-4.7678,-4.769,-4.771,-4.7714,-4.7726,-4.7747,-4.7763,-4.7758,-4.7771,-4.7785,-4.7777,-4.7789,-4.7788,-4.7788,-4.7719,-4.771,-4.7796,-4.7796,-4.7796,-4.7796,-4.7796,-4.7796,-4.7698,-4.7729,-4.7723,-4.7756,-4.7755,-4.7776,-4.7782,-4.7788,-4.7791,-4.7816,-4.7828,-4.7825,-4.7826,-4.7839,-4.7852,-4.785,-4.7856,-4.7872,-4.7867,-4.7802,-4.7793,-4.7784,-4.7776,-4.7874,-4.7874,-4.7934,-4.7935,-4.7935]}]]